When you browse on this site, cookies collect data to enhance your experience and personalize the content and advertising you see.
Visit our Privacy Policy to learn more. By continuing to use the site, you agree to this use of cookies and data.
  • In United Kingdom
  • List of Countries
  • For 7 days
  • Water Temperature
  • Weather Map
  • Weather Widgets
  • user-avatar
    Login

    Hourly Weather Sidi Bu-l-Abbas

    Today, 6 June, Saturday

    Time Temperature Precipitation Wind Pressure Humidity
    00:00 +20°C° 0 mm 0 mps 719 mmHg 45%
    01:00 +22°C° 0 mm 1 mps 719 mmHg 45%
    02:00 +22°C° 0 mm 1 mps 719 mmHg 45%
    03:00 +21°C° 0 mm 1 mps 718 mmHg 44%
    04:00 +22°C° 0 mm 1 mps 718 mmHg 44%
    05:00 +22°C° 0 mm 1 mps 719 mmHg 43%
    06:00 +23°C° 0 mm 1 mps 719 mmHg 42%
    07:00 +25°C° 0 mm 1 mps 719 mmHg 37%
    08:00 +27°C° 0 mm 1 mps 719 mmHg 32%
    09:00 +29°C° 0 mm 2 mps 719 mmHg 27%
    10:00 +30°C° 0 mm 2 mps 719 mmHg 26%
    11:00 +31°C° 0 mm 3 mps 719 mmHg 24%
    12:00 +34°C° 0 mm 4 mps 719 mmHg 23%
    13:00 +33°C° 0 mm 5 mps 719 mmHg 25%
    14:00 +33°C° 0 mm 5 mps 718 mmHg 27%
    15:00 +32°C° 0 mm 5 mps 717 mmHg 29%
    16:00 +32°C° 0 mm 5 mps 717 mmHg 30%
    17:00 +30°C° 0 mm 4 mps 716 mmHg 31%
    18:00 +29°C° 0 mm 3 mps 716 mmHg 31%
    19:00 +28°C° 0 mm 3 mps 716 mmHg 35%
    20:00 +27°C° 0 mm 3 mps 716 mmHg 39%
    21:00 +25°C° 0 mm 3 mps 717 mmHg 43%
    22:00 +24°C° 0.1 mm 3 mps 717 mmHg 44%
    23:00 +23°C° 0.1 mm 4 mps 717 mmHg 46%

    Tomorrow, 7 June, Sunday

    Time Temperature Precipitation Wind Pressure Humidity
    00:00 +22°C° 0.1 mm 4 mps 717 mmHg 47%
    01:00 +22°C° 0.1 mm 3 mps 717 mmHg 50%
    02:00 +21°C° 0.1 mm 3 mps 717 mmHg 54%
    03:00 +21°C° 0.1 mm 3 mps 717 mmHg 57%
    04:00 +21°C° 0 mm 2 mps 717 mmHg 58%
    05:00 +21°C° 0 mm 2 mps 717 mmHg 58%
    06:00 +21°C° 0 mm 2 mps 717 mmHg 58%
    07:00 +23°C° 0 mm 2 mps 718 mmHg 57%
    08:00 +22°C° 0 mm 3 mps 718 mmHg 56%
    09:00 +24°C° 0 mm 3 mps 718 mmHg 55%
    10:00 +25°C° 0 mm 4 mps 718 mmHg 49%
    11:00 +27°C° 0 mm 5 mps 718 mmHg 44%
    12:00 +28°C° 0 mm 6 mps 718 mmHg 39%
    13:00 +28°C° 0 mm 7 mps 718 mmHg 38%
    14:00 +28°C° 0 mm 7 mps 718 mmHg 38%
    15:00 +28°C° 0 mm 7 mps 718 mmHg 38%
    16:00 +27°C° 0 mm 7 mps 717 mmHg 43%
    17:00 +26°C° 0 mm 7 mps 717 mmHg 48%
    18:00 +24°C° 0 mm 7 mps 717 mmHg 52%
    19:00 +23°C° 0 mm 6 mps 717 mmHg 55%
    20:00 +22°C° 0 mm 5 mps 718 mmHg 57%
    21:00 +21°C° 0 mm 4 mps 718 mmHg 59%
    22:00 +21°C° 0 mm 4 mps 718 mmHg 60%
    23:00 +21°C° 0 mm 4 mps 717 mmHg 61%

    Day after tomorrow, 8 June, Monday

    Time Temperature Precipitation Wind Pressure Humidity
    00:00 +20°C° 0 mm 4 mps 717 mmHg 61%
    01:00 +20°C° 0 mm 4 mps 717 mmHg 62%
    02:00 +20°C° 0 mm 4 mps 717 mmHg 62%
    03:00 +20°C° 0 mm 4 mps 717 mmHg 62%
    04:00 +20°C° 0 mm 4 mps 717 mmHg 63%
    05:00 +20°C° 0 mm 4 mps 717 mmHg 64%
    06:00 +20°C° 0 mm 3 mps 717 mmHg 65%
    07:00 +21°C° 0 mm 4 mps 718 mmHg 61%
    08:00 +22°C° 0 mm 5 mps 718 mmHg 56%
    09:00 +23°C° 0 mm 6 mps 718 mmHg 52%
    10:00 +24°C° 0 mm 7 mps 718 mmHg 50%
    11:00 +24°C° 0 mm 7 mps 718 mmHg 48%
    12:00 +26°C° 0 mm 8 mps 718 mmHg 47%
    13:00 +26°C° 0 mm 8 mps 718 mmHg 46%
    14:00 +26°C° 0 mm 8 mps 718 mmHg 45%
    15:00 +26°C° 0 mm 8 mps 718 mmHg 45%
    16:00 +24°C° 0 mm 7 mps 718 mmHg 47%
    17:00 +23°C° 0 mm 7 mps 718 mmHg 50%
    18:00 +22°C° 0 mm 6 mps 718 mmHg 52%
    19:00 +22°C° 0 mm 5 mps 718 mmHg 56%
    20:00 +21°C° 0 mm 4 mps 718 mmHg 60%
    21:00 +20°C° 0 mm 3 mps 719 mmHg 64%
    22:00 +19°C° 0 mm 3 mps 719 mmHg 64%
    23:00 +19°C° 0 mm 2 mps 719 mmHg 65%

    9 June, Tuesday

    Time Temperature Precipitation Wind Pressure Humidity
    00:00 +19°C° 0 mm 2 mps 719 mmHg 66%
    01:00 +18°C° 0 mm 2 mps 718 mmHg 67%
    02:00 +18°C° 0 mm 2 mps 718 mmHg 68%
    03:00 +19°C° 0 mm 1 mps 718 mmHg 69%
    04:00 +19°C° 0 mm 1 mps 718 mmHg 68%
    05:00 +19°C° 0 mm 1 mps 718 mmHg 67%
    06:00 +19°C° 0 mm 1 mps 718 mmHg 66%
    07:00 +19°C° 0 mm 2 mps 719 mmHg 57%
    08:00 +21°C° 0 mm 3 mps 719 mmHg 48%
    09:00 +22°C° 0 mm 4 mps 719 mmHg 39%
    10:00 +23°C° 0 mm 4 mps 719 mmHg 39%
    11:00 +25°C° 0 mm 4 mps 720 mmHg 39%
    12:00 +25°C° 0 mm 4 mps 720 mmHg 39%
    13:00 +26°C° 0 mm 5 mps 720 mmHg 40%
    14:00 +26°C° 0 mm 5 mps 719 mmHg 41%
    15:00 +26°C° 0 mm 6 mps 719 mmHg 42%
    16:00 +25°C° 0 mm 5 mps 719 mmHg 44%
    17:00 +23°C° 0 mm 5 mps 719 mmHg 47%
    18:00 +23°C° 0 mm 4 mps 719 mmHg 50%
    19:00 +22°C° 0 mm 3 mps 720 mmHg 52%
    20:00 +21°C° 0 mm 2 mps 720 mmHg 54%
    21:00 +21°C° 0 mm 1 mps 720 mmHg 56%
    22:00 +21°C° 0 mm 1 mps 720 mmHg 58%
    23:00 +20°C° 0 mm 1 mps 720 mmHg 60%

    10 June, Wednesday

    Time Temperature Precipitation Wind Pressure Humidity
    00:00 +20°C° 0 mm 1 mps 720 mmHg 62%
    01:00 +18°C° 0 mm 0 mps 720 mmHg 65%
    02:00 +17°C° 0 mm 0 mps 719 mmHg 68%
    03:00 +17°C° 0 mm 0 mps 719 mmHg 71%
    04:00 +17°C° 0 mm 0 mps 719 mmHg 70%
    05:00 +19°C° 0 mm 1 mps 719 mmHg 69%
    06:00 +20°C° 0 mm 1 mps 720 mmHg 68%
    07:00 +21°C° 0 mm 1 mps 720 mmHg 60%
    08:00 +22°C° 0 mm 1 mps 720 mmHg 53%
    09:00 +24°C° 0 mm 1 mps 720 mmHg 45%
    10:00 +25°C° 0 mm 2 mps 720 mmHg 41%
    11:00 +26°C° 0 mm 2 mps 720 mmHg 36%
    12:00 +28°C° 0 mm 2 mps 720 mmHg 31%
    13:00 +28°C° 0 mm 3 mps 720 mmHg 30%
    14:00 +29°C° 0 mm 4 mps 720 mmHg 30%
    15:00 +29°C° 0 mm 5 mps 719 mmHg 29%
    16:00 +28°C° 0 mm 5 mps 719 mmHg 32%
    17:00 +27°C° 0 mm 6 mps 719 mmHg 35%
    18:00 +26°C° 0 mm 6 mps 719 mmHg 38%
    19:00 +25°C° 0 mm 5 mps 720 mmHg 39%
    20:00 +23°C° 0 mm 4 mps 720 mmHg 40%
    21:00 +23°C° 0 mm 2 mps 721 mmHg 41%
    22:00 +23°C° 0 mm 2 mps 720 mmHg 42%
    23:00 +22°C° 0 mm 1 mps 720 mmHg 43%

    11 June, Thursday

    Time Temperature Precipitation Wind Pressure Humidity
    00:00 +22°C° 0 mm 1 mps 720 mmHg 45%
    01:00 +21°C° 0 mm 1 mps 720 mmHg 46%
    02:00 +18°C° 0 mm 0 mps 719 mmHg 47%
    03:00 +18°C° 0 mm 0 mps 719 mmHg 49%
    04:00 +18°C° 0 mm 0 mps 719 mmHg 47%
    05:00 +21°C° 0 mm 1 mps 719 mmHg 45%
    06:00 +22°C° 0 mm 1 mps 719 mmHg 42%
    07:00 +23°C° 0 mm 1 mps 720 mmHg 37%
    08:00 +25°C° 0 mm 2 mps 720 mmHg 31%
    09:00 +26°C° 0 mm 2 mps 720 mmHg 25%
    10:00 +27°C° 0 mm 2 mps 720 mmHg 24%
    11:00 +28°C° 0 mm 2 mps 720 mmHg 22%
    12:00 +29°C° 0 mm 2 mps 720 mmHg 20%
    13:00 +30°C° 0 mm 3 mps 719 mmHg 20%
    14:00 +30°C° 0 mm 3 mps 719 mmHg 20%
    15:00 +32°C° 0 mm 4 mps 719 mmHg 20%
    16:00 +30°C° 0 mm 5 mps 718 mmHg 22%
    17:00 +29°C° 0 mm 5 mps 718 mmHg 24%
    18:00 +28°C° 0 mm 6 mps 718 mmHg 27%
    19:00 +27°C° 0 mm 4 mps 718 mmHg 29%
    20:00 +26°C° 0 mm 3 mps 718 mmHg 31%
    21:00 +25°C° 0 mm 2 mps 718 mmHg 33%
    22:00 +24°C° 0 mm 2 mps 718 mmHg 33%
    23:00 +24°C° 0 mm 1 mps 718 mmHg 33%
    Show more